COSMOS 249 DEB, 6752

Orbit data source: Space-Track

COSMOS 249 DEB, 6752 is space debris in LEO originally from a launch on Sun, 20 Oct 1968 UTC launched from the Tyuratam Missile And Space Complex (TTMTR). Debris objects in space refer to the collection of defunct objects orbiting the Earth. Examples of debris include non-operational satellites, rocket bodies, and fragments generated from explosions, collisions, or faulty payload assembly.

Loading next visibility...
Identifier
6752, 1968-091CJ
Orbit
LEO
Country
Flag of CISCIS
Related business
Manufacturer
Unknown
Mission
Spacecraft
Bus & Motor
Unknown
Mass
Unknown
Launch date (UTC)
1968-10-20 (58 years ago)
Launch vehicle
Unknown
Launch site
Tyuratam Missile And Space Complex (TTMTR)
Object type
Payload
Rocket body
Debris
Shape & HBR
Unknown shape, 0.1 m
Radar Cross Section
Medium (>0.1 m² and <1 m²)

Expand to show TLE details & history
Last TLE update: 8 hours ago

TLE from 8 hours ago
0 COSMOS 249 DEB
1 06752U 68091CJ  26236.25249803  .00001488  00000-0  13841-2 0  9996
2 06752  62.2783 324.2681 0643120 153.6641 209.8622 13.17566222668237
Epoch: 2026-08-24T06:03Z
TLE epoch observation values (Epoch: 2026-08-24T06:03:35.829Z)
Latitude
-0.00007°
Longitude
-99.16809°
Altitude
1,625.208 km
Speed
6.856 km/s
True Right ascension
21h 37m 04s
True Declination
0° 00' 00"
Sunlit
Object was in full shadow at epoch
Visualization orbit readout
Latitude
Unknown
Longitude
Unknown
Altitude
Unknown
Speed
Unknown
Apparent Right ascension
Unknown
Apparent Declination
Unknown
Sunlit
N/A
Visualization observer readout
Local Sidereal Time
04:58:05
Azimuth
Unknown
Elevation
Unknown
Doppler factor
Unknown
Orbital elements
Apogee altitude
1,679.924 km
Perigee altitude
706.093 km
Semi-major axis
7,571.146 km
Eccentricity
0.06431
Inclination
62.2783°
RAAN
324.2681°
Arg. of periapsis
153.6641°
True anomaly
206.43449°
Mean anomaly
209.8622°
Eccentric anomaly
208.12518°
Mean motion
3.29459 °/min
Orbital period
109.27 mins
BSTAR
0.0013841
Loading maneuver chart data...
Computing Atmospheric mass density...
Loading historical data...
Loading historical data...
Loading historical data...
Loading historical data...
Loading historical data...
Loading historical data...
Loading historical data...

Documentation

Showing up to 5 results
|